Language: 


Des rapports , des résumés tant et plus, au choix de chacun....


Données statistiques de la station
Quotidien Rapport Novembre 28, 2017 Unités:  Anglais    Métrique   les deux
« Précédent Jour
Suivant Jour »
Quotidien Hebdomadaire Mensuel Annuel Actuel
  Haut: Bas: Moyen:
Température: TemperatureC °F 0.6 °F 4.5 °F
Pt de rosée: DewpointC °F 1.0 °F 4.5 °F
Humidité: Humidity % 90 % 97 %
Vitesse du vent: WindSpeedKMH mph 0.0 mph 2.4 mph
Rafales: WindSpeedGustKMH mph - -
Vent:- - West
Pression: PressurehPa in 1005.0 in -
Précipitation: 1.8 in    
Historical Graphs
 
 
Données statistiques pour Novembre 28, 2017
Heure Température Point de rosée Pression Vent Vitesse du vent Refales Humidité Pluie (taux horaire)
TemperatureC °F DewpointC °F PressurehPa in Calm     Humidity % HourlyPrecipMM in
00:02 7.0 °F 7.0 °F 1007.0 in West 10.5 mph 12.2 mph 98 % 0.3 in
00:07 7.0 °F 7.0 °F 1007.0 in West 13.7 mph 13.7 mph 98 % 0.3 in
00:12 7.0 °F 7.0 °F 1007.0 in WSW 9.3 mph 13.7 mph 98 % 0.3 in
00:17 7.0 °F 7.0 °F 1007.0 in West 8.7 mph 16.3 mph 98 % 0.3 in
00:22 7.0 °F 7.0 °F 1007.0 in SSW 9.7 mph 16.3 mph 98 % 0.3 in
00:27 7.0 °F 7.0 °F 1007.0 in WSW 5.0 mph 13.7 mph 98 % 0.3 in
00:32 7.0 °F 7.0 °F 1007.0 in West 9.7 mph 16.9 mph 98 % 0.0 in
00:37 7.0 °F 7.0 °F 1007.0 in West 12.2 mph 16.9 mph 98 % 0.0 in
00:42 7.0 °F 7.0 °F 1007.0 in WSW 3.5 mph 15.4 mph 98 % 0.0 in
00:47 6.9 °F 7.0 °F 1007.0 in West 10.5 mph 12.2 mph 98 % 0.0 in
00:52 6.9 °F 7.0 °F 1007.0 in Calm   10.5 mph 98 % 0.0 in
00:57 6.8 °F 7.0 °F 1007.0 in WNW 5.5 mph 9.7 mph 98 % 0.0 in
01:02 6.8 °F 7.0 °F 1007.0 in West 5.0 mph 7.9 mph 98 % 0.0 in
01:06 6.7 °F 7.0 °F 1007.0 in Calm   7.9 mph 98 % 0.0 in
01:12 6.7 °F 7.0 °F 1007.0 in Calm   6.4 mph 98 % 0.0 in
01:17 6.6 °F 7.0 °F 1007.0 in Calm   6.1 mph 98 % 0.0 in
01:22 6.6 °F 7.0 °F 1007.0 in Calm   6.1 mph 98 % 0.0 in
01:27 6.6 °F 7.0 °F 1007.0 in West 6.4 mph 8.7 mph 98 % 0.0 in
01:32 6.6 °F 7.0 °F 1007.0 in Calm   9.0 mph 98 % 0.0 in
01:37 6.6 °F 7.0 °F 1007.0 in WSW 5.8 mph 10.1 mph 98 % 0.0 in
01:42 6.7 °F 7.0 °F 1006.0 in West 9.3 mph 10.1 mph 98 % 0.0 in
01:47 6.7 °F 7.0 °F 1006.0 in Calm   10.1 mph 98 % 0.0 in
01:52 6.6 °F 7.0 °F 1006.0 in WNW 7.2 mph 11.9 mph 98 % 0.0 in
01:57 6.6 °F 7.0 °F 1007.0 in West 8.7 mph 11.9 mph 98 % 0.0 in
02:02 6.6 °F 7.0 °F 1007.0 in West 9.3 mph 12.2 mph 98 % 0.0 in
02:07 6.5 °F 7.0 °F 1007.0 in WSW 9.0 mph 12.2 mph 98 % 0.0 in
02:12 6.5 °F 7.0 °F 1006.0 in West 7.2 mph 11.6 mph 98 % 0.0 in
02:17 6.5 °F 7.0 °F 1006.0 in West 8.7 mph 10.1 mph 98 % 0.0 in
02:22 6.4 °F 6.0 °F 1006.0 in WSW 9.0 mph 10.1 mph 98 % 0.0 in
02:27 6.4 °F 6.0 °F 1006.0 in West 6.9 mph 12.6 mph 98 % 0.0 in
02:32 6.4 °F 6.0 °F 1006.0 in West 2.6 mph 12.6 mph 98 % 0.0 in
02:37 6.4 °F 6.0 °F 1006.0 in Calm   13.7 mph 98 % 0.0 in
02:42 6.4 °F 6.0 °F 1007.0 in West 6.1 mph 13.7 mph 98 % 0.0 in
02:47 6.4 °F 6.0 °F 1007.0 in Calm   11.9 mph 98 % 0.0 in
02:52 6.3 °F 6.0 °F 1007.0 in Calm   10.1 mph 98 % 0.0 in
02:57 6.1 °F 6.0 °F 1007.0 in West 3.2 mph 6.9 mph 98 % 0.0 in
03:02 6.0 °F 6.0 °F 1007.0 in Calm   6.1 mph 98 % 0.0 in
03:07 5.8 °F 6.0 °F 1007.0 in Calm   3.2 mph 98 % 0.0 in
03:12 5.6 °F 6.0 °F 1007.0 in WSW 5.5 mph 5.8 mph 98 % 0.0 in
03:17 5.5 °F 6.0 °F 1007.0 in Calm   5.8 mph 98 % 0.0 in
03:22 5.5 °F 6.0 °F 1007.0 in Calm   5.5 mph 98 % 0.0 in
03:28 5.5 °F 6.0 °F 1007.0 in Calm     98 % 0.0 in
03:33 5.5 °F 6.0 °F 1007.0 in West 4.3 mph 4.3 mph 98 % 0.0 in
03:38 5.4 °F 6.0 °F 1007.0 in Calm   6.4 mph 98 % 0.0 in
03:43 5.3 °F 6.0 °F 1007.0 in WNW 5.5 mph 6.4 mph 98 % 0.0 in
03:48 5.2 °F 5.0 °F 1007.0 in West 5.8 mph 6.9 mph 98 % 0.0 in
03:53 5.1 °F 5.0 °F 1007.0 in West 5.0 mph 6.9 mph 98 % 0.0 in
03:58 5.0 °F 5.0 °F 1007.0 in West 2.6 mph 8.7 mph 98 % 0.0 in
04:03 4.8 °F 5.0 °F 1007.0 in WSW 4.7 mph 8.7 mph 98 % 0.0 in
04:08 4.6 °F 5.0 °F 1007.0 in Calm   7.2 mph 98 % 0.0 in
04:13 4.3 °F 4.0 °F 1007.0 in Calm   1.8 mph 98 % 0.0 in
04:18 4.2 °F 4.0 °F 1007.0 in Calm     98 % 0.0 in
04:23 3.9 °F 4.0 °F 1007.0 in WSW 2.6 mph 2.6 mph 98 % 0.0 in
04:28 3.7 °F 4.0 °F 1007.0 in Calm   2.6 mph 98 % 0.0 in
04:30 3.6 °F 4.0 °F 1007.0 in Calm   2.6 mph 98 % 0.0 in
04:35 3.5 °F 4.0 °F 1007.0 in Calm   7.6 mph 98 % 0.0 in
04:40 3.5 °F 4.0 °F 1007.0 in West 5.0 mph 7.9 mph 98 % 0.0 in
04:45 3.6 °F 4.0 °F 1007.0 in Calm   7.9 mph 98 % 0.0 in
04:50 3.6 °F 4.0 °F 1007.0 in WSW 6.1 mph 7.9 mph 98 % 0.0 in
04:55 3.6 °F 4.0 °F 1007.0 in Calm   6.4 mph 98 % 0.0 in
05:00 3.5 °F 4.0 °F 1007.0 in Calm   6.4 mph 98 % 0.0 in
05:05 3.4 °F 3.0 °F 1007.0 in Calm   5.5 mph 98 % 0.0 in
05:10 3.4 °F 3.0 °F 1007.0 in Calm   4.7 mph 98 % 0.0 in
05:15 3.2 °F 3.0 °F 1007.0 in Calm   4.7 mph 98 % 0.0 in
05:20 3.0 °F 3.0 °F 1007.0 in Calm     98 % 0.0 in
05:25 2.7 °F 3.0 °F 1007.0 in Calm     98 % 0.0 in
05:29 2.6 °F 3.0 °F 1007.0 in Calm     98 % 0.0 in
05:35 2.7 °F 3.0 °F 1007.0 in Calm     98 % 0.0 in
05:40 2.7 °F 3.0 °F 1007.0 in West 4.7 mph 5.8 mph 98 % 0.0 in
05:45 2.8 °F 3.0 °F 1007.0 in West 1.4 mph 5.8 mph 98 % 0.0 in
05:50 2.8 °F 3.0 °F 1007.0 in Calm   5.0 mph 98 % 0.0 in
05:55 2.7 °F 3.0 °F 1007.0 in WNW 3.5 mph 3.5 mph 98 % 0.0 in
06:00 2.7 °F 3.0 °F 1007.0 in Calm   5.0 mph 98 % 0.0 in
06:05 2.8 °F 3.0 °F 1007.0 in West 6.4 mph 6.4 mph 98 % 0.0 in
06:10 2.7 °F 3.0 °F 1007.0 in Calm   6.9 mph 98 % 0.0 in
06:15 2.6 °F 3.0 °F 1007.0 in West 5.0 mph 6.9 mph 98 % 0.0 in
06:20 2.6 °F 3.0 °F 1007.0 in Calm   6.1 mph 98 % 0.0 in
06:25 2.4 °F 3.0 °F 1007.0 in Calm   5.5 mph 98 % 0.0 in
06:30 2.0 °F 2.0 °F 1007.0 in Calm     98 % 0.0 in
06:35 1.8 °F 2.0 °F 1007.0 in Calm     98 % 0.0 in
06:40 1.7 °F 2.0 °F 1007.0 in Calm   4.0 mph 98 % 0.0 in
06:45 1.7 °F 2.0 °F 1007.0 in West 4.0 mph 5.8 mph 98 % 0.0 in
06:50 1.7 °F 2.0 °F 1007.0 in Calm   6.9 mph 98 % 0.0 in
06:55 1.6 °F 2.0 °F 1007.0 in Calm   6.9 mph 98 % 0.0 in
07:00 1.3 °F 1.0 °F 1007.0 in Calm     98 % 0.0 in
07:05 1.1 °F 1.0 °F 1007.0 in Calm     98 % 0.0 in
07:10 1.0 °F 1.0 °F 1007.0 in Calm     98 % 0.0 in
07:15 1.1 °F 1.0 °F 1007.0 in Calm     98 % 0.0 in
07:20 1.4 °F 1.0 °F 1007.0 in Calm   6.1 mph 98 % 0.0 in
07:25 1.6 °F 2.0 °F 1007.0 in WNW 1.8 mph 6.1 mph 98 % 0.0 in
07:30 1.7 °F 2.0 °F 1007.0 in Calm   4.7 mph 98 % 0.0 in
07:35 1.6 °F 2.0 °F 1007.0 in Calm   4.7 mph 98 % 0.0 in
07:40 1.6 °F 2.0 °F 1007.0 in Calm     98 % 0.0 in
07:45 1.7 °F 2.0 °F 1007.0 in Calm     98 % 0.0 in
07:51 1.7 °F 2.0 °F 1007.0 in Calm     98 % 0.0 in
07:56 1.6 °F 2.0 °F 1007.0 in Calm     98 % 0.0 in
08:01 1.3 °F 1.0 °F 1007.0 in Calm     98 % 0.0 in
08:06 1.2 °F 1.0 °F 1007.0 in Calm     98 % 0.0 in
08:11 1.2 °F 1.0 °F 1007.0 in Calm     98 % 0.0 in
08:16 1.3 °F 1.0 °F 1007.0 in West 4.3 mph 4.3 mph 98 % 0.0 in
08:21 1.3 °F 1.0 °F 1007.0 in Calm   6.1 mph 98 % 0.0 in
08:26 1.1 °F 1.0 °F 1007.0 in Calm   6.1 mph 98 % 0.0 in
08:31 0.9 °F 1.0 °F 1007.0 in Calm   4.0 mph 98 % 0.0 in
08:36 0.7 °F 1.0 °F 1007.0 in Calm     98 % 0.0 in
08:41 0.6 °F 1.0 °F 1006.0 in Calm   1.4 mph 98 % 0.0 in
08:46 0.6 °F 1.0 °F 1006.0 in Calm   1.4 mph 98 % 0.0 in
08:51 0.7 °F 1.0 °F 1006.0 in Calm     98 % 0.0 in
08:56 0.9 °F 1.0 °F 1007.0 in Calm     98 % 0.0 in
09:01 1.3 °F 1.0 °F 1007.0 in Calm   4.7 mph 98 % 0.0 in
09:06 1.6 °F 2.0 °F 1007.0 in Calm   4.7 mph 98 % 0.0 in
09:11 1.5 °F 2.0 °F 1007.0 in Calm   4.0 mph 98 % 0.0 in
09:17 1.5 °F 2.0 °F 1007.0 in Calm     98 % 0.0 in
09:22 1.5 °F 2.0 °F 1007.0 in Calm     98 % 0.0 in
09:27 1.5 °F 2.0 °F 1007.0 in Calm     98 % 0.0 in
09:32 1.6 °F 2.0 °F 1007.0 in Calm     98 % 0.0 in
09:37 1.9 °F 2.0 °F 1007.0 in Calm     98 % 0.0 in
09:42 2.1 °F 2.0 °F 1007.0 in West 2.1 mph 2.1 mph 98 % 0.0 in
09:47 2.4 °F 3.0 °F 1007.0 in Calm   2.1 mph 98 % 0.0 in
09:52 2.7 °F 3.0 °F 1007.0 in Calm   2.1 mph 98 % 0.0 in
09:57 2.9 °F 3.0 °F 1007.0 in Calm     98 % 0.0 in
10:02 3.7 °F 4.0 °F 1007.0 in Calm     98 % 0.0 in
10:07 4.0 °F 4.0 °F 1007.0 in Calm     98 % 0.0 in
10:12 4.3 °F 4.0 °F 1007.0 in Calm     98 % 0.0 in
10:17 4.5 °F 5.0 °F 1007.0 in Calm     98 % 0.0 in
10:22 4.8 °F 5.0 °F 1007.0 in Calm     98 % 0.0 in
10:27 5.0 °F 5.0 °F 1007.0 in Calm     98 % 0.0 in
10:32 5.3 °F 6.0 °F 1007.0 in Calm   3.2 mph 98 % 0.0 in
10:37 5.7 °F 6.0 °F 1007.0 in Calm   3.2 mph 98 % 0.0 in
10:42 6.0 °F 6.0 °F 1007.0 in Calm     98 % 0.0 in
10:43 6.0 °F 6.0 °F 1007.0 in Calm     98 % 0.0 in
10:48 6.2 °F 6.0 °F 1007.0 in WSW 5.5 mph 8.7 mph 98 % 0.0 in
10:53 6.5 °F 7.0 °F 1007.0 in WSW 6.4 mph 8.7 mph 98 % 0.0 in
10:58 6.7 °F 7.0 °F 1007.0 in Calm   6.4 mph 98 % 0.0 in
11:03 7.1 °F 7.0 °F 1007.0 in SSW 6.4 mph 6.4 mph 98 % 0.0 in
11:08 6.9 °F 7.0 °F 1007.0 in Calm   6.4 mph 98 % 0.0 in
11:13 7.0 °F 7.0 °F 1007.0 in Calm   6.1 mph 98 % 0.0 in
11:18 7.0 °F 7.0 °F 1007.0 in SSW 6.4 mph 9.0 mph 98 % 0.0 in
11:23 7.2 °F 7.0 °F 1007.0 in SSW 9.0 mph 11.9 mph 98 % 0.0 in
11:28 7.4 °F 7.0 °F 1006.0 in SW 9.3 mph 11.9 mph 98 % 0.0 in
11:33 7.6 °F 8.0 °F 1006.0 in SW 8.7 mph 10.5 mph 98 % 0.0 in
11:38 7.6 °F 8.0 °F 1006.0 in WSW 9.3 mph 11.9 mph 98 % 0.0 in
11:43 7.4 °F 7.0 °F 1007.0 in WSW 7.6 mph 11.9 mph 97 % 0.0 in
11:49 7.3 °F 7.0 °F 1007.0 in SW 9.0 mph 10.1 mph 97 % 0.0 in
11:54 7.2 °F 7.0 °F 1007.0 in SW 8.7 mph 12.2 mph 96 % 0.0 in
11:59 7.6 °F 7.0 °F 1007.0 in SW 5.8 mph 12.2 mph 97 % 0.0 in
12:04 8.2 °F 8.0 °F 1007.0 in SW 9.0 mph 10.5 mph 97 % 0.0 in
12:09 8.6 °F 9.0 °F 1007.0 in WSW 9.0 mph 12.2 mph 96 % 0.0 in
12:14 8.5 °F 8.0 °F 1007.0 in WSW 4.3 mph 12.2 mph 95 % 0.0 in
12:19 8.5 °F 8.0 °F 1007.0 in WSW 5.8 mph 10.1 mph 94 % 0.0 in
12:24 8.5 °F 8.0 °F 1007.0 in WSW 6.9 mph 9.3 mph 94 % 0.0 in
12:29 8.3 °F 8.0 °F 1007.0 in Calm   9.3 mph 93 % 0.0 in
12:34 8.2 °F 7.0 °F 1007.0 in Calm   9.3 mph 93 % 0.0 in
12:39 8.2 °F 7.0 °F 1007.0 in WSW 10.5 mph 10.5 mph 93 % 0.0 in
12:44 8.0 °F 7.0 °F 1006.0 in SW 5.8 mph 10.5 mph 92 % 0.0 in
12:49 8.0 °F 7.0 °F 1006.0 in SW 6.1 mph 10.1 mph 92 % 0.0 in
12:59 7.7 °F 6.0 °F 1006.0 in SSW 7.9 mph 11.9 mph 92 % 0.0 in
13:04 7.7 °F 6.0 °F 1006.0 in Calm   11.9 mph 92 % 0.0 in
13:09 7.8 °F 7.0 °F 1006.0 in WSW 7.9 mph 11.6 mph 93 % 0.0 in
13:19 7.7 °F 6.0 °F 1006.0 in WSW 8.7 mph 13.0 mph 92 % 0.0 in
13:24 7.7 °F 7.0 °F 1006.0 in WSW 6.4 mph 10.5 mph 93 % 0.0 in
13:34 7.8 °F 7.0 °F 1006.0 in Calm   9.3 mph 93 % 0.0 in
13:39 7.8 °F 7.0 °F 1006.0 in WSW 7.9 mph 9.3 mph 93 % 0.0 in
13:45 7.8 °F 7.0 °F 1005.0 in WSW 9.0 mph 10.5 mph 93 % 0.0 in
13:50 7.8 °F 7.0 °F 1005.0 in WSW 9.7 mph 11.9 mph 93 % 0.0 in
13:55 7.8 °F 7.0 °F 1005.0 in WSW 7.9 mph 11.9 mph 93 % 0.0 in
14:05 7.9 °F 6.0 °F 1006.0 in West 5.0 mph 12.2 mph 90 % 0.0 in
14:10 7.6 °F 6.0 °F 1006.0 in SSW 6.4 mph 10.5 mph 90 % 0.3 in
14:15 7.4 °F 6.0 °F 1005.0 in Calm   10.1 mph 90 % 0.5 in
14:20 7.2 °F 6.0 °F 1005.0 in WNW 4.3 mph 8.7 mph 90 % 0.5 in
14:30 7.1 °F 6.0 °F 1005.0 in NW 5.5 mph 5.5 mph 92 % 0.5 in
14:35 7.1 °F 6.0 °F 1005.0 in WNW 5.0 mph 6.9 mph 93 % 0.5 in
14:40 7.0 °F 6.0 °F 1005.0 in Calm   6.9 mph 93 % 0.5 in
14:45 6.9 °F 6.0 °F 1005.0 in Calm   1.8 mph 94 % 0.5 in
14:50 6.8 °F 6.0 °F 1005.0 in West 2.1 mph 4.0 mph 94 % 0.8 in
14:55 6.7 °F 6.0 °F 1005.0 in Calm   4.7 mph 95 % 0.8 in
15:00 6.8 °F 6.0 °F 1005.0 in Calm   6.4 mph 95 % 0.8 in
15:05 6.9 °F 6.0 °F 1005.0 in Calm   6.4 mph 95 % 0.8 in
15:15 6.7 °F 6.0 °F 1005.0 in West 6.4 mph 9.0 mph 96 % 0.3 in
15:20 6.4 °F 6.0 °F 1005.0 in West 5.0 mph 10.1 mph 95 % 0.8 in
15:25 6.2 °F 6.0 °F 1005.0 in Calm   10.1 mph 95 % 1.0 in
15:30 6.2 °F 6.0 °F 1005.0 in Calm   6.4 mph 95 % 1.0 in
15:35 6.2 °F 6.0 °F 1005.0 in Calm   5.8 mph 96 % 1.0 in
15:40 6.1 °F 6.0 °F 1005.0 in Calm   5.8 mph 96 % 1.0 in
15:45 6.0 °F 6.0 °F 1005.0 in Calm     96 % 1.0 in
15:50 6.0 °F 6.0 °F 1005.0 in Calm     96 % 0.8 in
15:55 5.9 °F 6.0 °F 1005.0 in Calm     97 % 0.8 in
16:00 5.9 °F 6.0 °F 1005.0 in Calm     97 % 0.8 in
16:05 5.8 °F 6.0 °F 1005.0 in Calm     97 % 0.8 in
16:10 5.8 °F 6.0 °F 1005.0 in Calm     97 % 0.8 in
16:15 5.8 °F 6.0 °F 1005.0 in Calm     98 % 0.8 in
16:20 5.7 °F 6.0 °F 1005.0 in Calm     98 % 0.3 in
16:26 5.6 °F 6.0 °F 1005.0 in Calm     98 % 0.0 in
16:31 5.6 °F 6.0 °F 1005.0 in Calm     98 % 0.0 in
16:36 5.5 °F 6.0 °F 1005.0 in Calm     98 % 0.0 in
16:41 5.4 °F 6.0 °F 1005.0 in Calm     98 % 0.0 in
16:46 5.3 °F 6.0 °F 1005.0 in Calm     98 % 0.0 in
16:51 5.1 °F 5.0 °F 1005.0 in Calm   4.7 mph 98 % 0.0 in
16:56 5.0 °F 5.0 °F 1005.0 in Calm   4.7 mph 98 % 0.0 in
17:01 4.8 °F 5.0 °F 1005.0 in Calm     98 % 0.0 in
17:06 4.7 °F 5.0 °F 1005.0 in Calm     98 % 0.3 in
17:11 4.6 °F 5.0 °F 1005.0 in Calm     98 % 0.3 in
17:16 4.5 °F 5.0 °F 1005.0 in Calm     98 % 0.3 in
17:21 4.4 °F 4.0 °F 1005.0 in Calm   5.8 mph 98 % 0.3 in
17:26 4.4 °F 4.0 °F 1006.0 in North 5.0 mph 5.8 mph 98 % 0.3 in
17:31 4.4 °F 4.0 °F 1006.0 in WNW 2.6 mph 5.0 mph 98 % 0.3 in
17:36 4.4 °F 4.0 °F 1006.0 in Calm   5.0 mph 98 % 0.3 in
17:41 4.3 °F 4.0 °F 1005.0 in Calm   5.0 mph 98 % 0.3 in
17:46 4.3 °F 4.0 °F 1005.0 in Calm   1.8 mph 98 % 0.3 in
17:51 4.2 °F 4.0 °F 1005.0 in Calm     98 % 0.3 in
17:56 4.2 °F 4.0 °F 1005.0 in Calm     98 % 0.3 in
18:01 4.2 °F 4.0 °F 1005.0 in Calm     98 % 0.3 in
18:06 4.2 °F 4.0 °F 1005.0 in Calm   5.0 mph 98 % 0.0 in
18:11 4.3 °F 4.0 °F 1005.0 in Calm   5.0 mph 98 % 0.0 in
18:16 4.2 °F 4.0 °F 1005.0 in Calm   2.1 mph 98 % 0.0 in
18:21 4.2 °F 4.0 °F 1005.0 in Calm   2.1 mph 98 % 0.0 in
18:26 4.2 °F 4.0 °F 1005.0 in Calm     98 % 0.0 in
18:31 4.2 °F 4.0 °F 1005.0 in NW 2.6 mph 4.7 mph 98 % 0.0 in
18:36 4.1 °F 4.0 °F 1005.0 in Calm   4.7 mph 98 % 0.0 in
18:46 4.0 °F 4.0 °F 1005.0 in Calm     98 % 0.0 in
18:51 3.9 °F 4.0 °F 1005.0 in Calm     98 % 0.0 in
18:56 3.9 °F 4.0 °F 1005.0 in Calm     98 % 0.0 in
19:01 3.8 °F 4.0 °F 1005.0 in Calm     98 % 0.0 in
19:06 3.8 °F 4.0 °F 1005.0 in Calm     98 % 0.0 in
19:16 3.7 °F 4.0 °F 1005.0 in Calm     98 % 0.0 in
19:21 3.6 °F 4.0 °F 1005.0 in Calm     98 % 0.0 in
19:26 3.5 °F 4.0 °F 1006.0 in Calm     98 % 0.0 in
19:31 3.5 °F 4.0 °F 1006.0 in Calm     98 % 0.0 in
19:36 3.5 °F 4.0 °F 1006.0 in Calm     98 % 0.0 in
19:41 3.4 °F 3.0 °F 1005.0 in Calm     98 % 0.0 in
19:47 3.5 °F 4.0 °F 1005.0 in NW 6.9 mph 9.7 mph 98 % 0.0 in
19:57 3.6 °F 4.0 °F 1005.0 in Calm   6.9 mph 98 % 0.0 in
20:07 3.7 °F 4.0 °F 1005.0 in West 5.8 mph 10.1 mph 98 % 0.0 in
20:12 3.9 °F 4.0 °F 1006.0 in WSW 5.8 mph 14.0 mph 98 % 0.0 in
20:22 3.9 °F 4.0 °F 1006.0 in West 1.4 mph 15.4 mph 98 % 0.0 in
20:27 3.9 °F 4.0 °F 1006.0 in NNW 4.3 mph 12.6 mph 98 % 0.0 in
20:32 4.0 °F 4.0 °F 1006.0 in NNW 2.1 mph 12.6 mph 98 % 0.0 in
20:37 4.0 °F 4.0 °F 1006.0 in NNW 3.2 mph 8.7 mph 98 % 0.0 in
20:42 4.0 °F 4.0 °F 1006.0 in WNW 7.9 mph 10.5 mph 97 % 0.0 in
20:47 4.0 °F 4.0 °F 1006.0 in Calm   10.5 mph 97 % 0.0 in
21:12 3.5 °F 3.0 °F 1005.0 in Calm   6.4 mph 96 % 0.0 in
21:17 3.4 °F 3.0 °F 1005.0 in Calm   4.7 mph 96 % 0.0 in
21:22 3.2 °F 3.0 °F 1005.0 in Calm   1.8 mph 96 % 0.0 in
21:27 3.1 °F 3.0 °F 1006.0 in Calm     96 % 0.0 in
21:32 2.9 °F 3.0 °F 1006.0 in WSW 5.5 mph 6.4 mph 96 % 0.0 in
21:37 2.7 °F 3.0 °F 1006.0 in Calm   6.4 mph 96 % 0.0 in
21:43 2.5 °F 3.0 °F 1006.0 in West 4.0 mph 6.1 mph 96 % 0.0 in
21:48 2.3 °F 2.0 °F 1006.0 in Calm   5.8 mph 96 % 0.0 in
21:58 1.9 °F 2.0 °F 1006.0 in Calm   1.4 mph 97 % 0.0 in
22:03 1.9 °F 2.0 °F 1006.0 in West 4.3 mph 4.3 mph 97 % 0.0 in
22:08 1.8 °F 1.0 °F 1006.0 in Calm   6.1 mph 97 % 0.0 in
22:13 1.7 °F 2.0 °F 1006.0 in Calm   6.1 mph 98 % 0.0 in
22:18 1.6 °F 2.0 °F 1006.0 in Calm     98 % 0.0 in
22:23 1.6 °F 2.0 °F 1006.0 in Calm     98 % 0.0 in
22:28 1.6 °F 2.0 °F 1005.0 in Calm     98 % 0.0 in
22:33 1.5 °F 2.0 °F 1005.0 in Calm     98 % 0.0 in
22:38 1.5 °F 2.0 °F 1005.0 in Calm   6.9 mph 98 % 0.0 in
22:53 1.5 °F 2.0 °F 1006.0 in Calm   6.9 mph 98 % 0.0 in
23:03 1.4 °F 1.0 °F 1005.0 in Calm     98 % 0.0 in
23:08 1.3 °F 1.0 °F 1005.0 in Calm   6.9 mph 98 % 0.0 in
23:13 1.2 °F 1.0 °F 1005.0 in WSW 7.6 mph 7.6 mph 98 % 0.0 in
23:19 1.1 °F 1.0 °F 1005.0 in West 5.0 mph 8.7 mph 98 % 0.0 in
23:24 1.2 °F 1.0 °F 1005.0 in West 5.5 mph 9.0 mph 98 % 0.0 in
23:28 1.2 °F 1.0 °F 1006.0 in West 6.1 mph 9.0 mph 98 % 0.0 in
23:39 1.1 °F 1.0 °F 1006.0 in West 7.6 mph 12.2 mph 98 % 0.0 in
23:44 1.1 °F 1.0 °F 1005.0 in WSW 6.1 mph 12.2 mph 98 % 0.0 in
23:49 1.1 °F 1.0 °F 1005.0 in Calm   9.3 mph 98 % 0.0 in
23:54 1.0 °F 1.0 °F 1005.0 in Calm   8.7 mph 98 % 0.0 in
23:59 0.9 °F 1.0 °F 1006.0 in Calm   9.0 mph 98 % 0.0 in
Le Gheer Warneton
Courtoisie de Weather Underground - 2.25 mb

Mise a jour : 17/02/2018 20:31:11
Généré par Cumulus 1.9.4 (1099)